| time (UTC) | temp C | wind direction | speed KPH | gust KPH | rain 1hr cm | rain 24hr cm | rain mn cm | humidity % | barometer mb |
| 20260903001021 | 26 | 0 | 0.0 | 0.0 | 0.00 | 0.20 | 0.20 | 96 | 1014.1 |
| 20260903000520 | 26 | 0 | 0.0 | 0.0 | 0.00 | 0.20 | 0.20 | 96 | 1014.2 |
| 20260903000046 | 27 | 0 | 0.0 | 0.0 | 0.00 | 0.20 | 0.20 | 95 | 1013.9 |
| 20260902235520 | 27 | 0 | 0.0 | 0.0 | 0.00 | 0.20 | 0.20 | 95 | 1014.0 |
| 20260902235019 | 27 | 0 | 0.0 | 0.0 | 0.00 | 0.20 | 0.20 | 95 | 1014.0 |
| 20260902234543 | 27 | 0 | 0.0 | 0.0 | 0.00 | 0.20 | 0.20 | 94 | 1014.0 |
| 20260902234020 | 27 | 0 | 0.0 | 3.2 | 0.00 | 0.20 | 0.20 | 94 | 1014.1 |
| 20260902233521 | 27 | 0 | 0.0 | 3.2 | 0.00 | 0.20 | 0.20 | 94 | 1014.2 |
| 20260902233040 | 27 | 0 | 0.0 | 4.8 | 0.00 | 0.20 | 0.20 | 94 | 1014.2 |
| 20260902232521 | 27 | 0 | 0.0 | 4.8 | 0.00 | 0.20 | 0.20 | 94 | 1014.0 |
| 20260902232021 | 27 | 0 | 0.0 | 3.2 | 0.00 | 0.20 | 0.20 | 94 | 1013.9 |
| 20260902231544 | 27 | 0 | 0.0 | 3.2 | 0.00 | 0.20 | 0.20 | 94 | 1013.8 |
| 20260902231024 | 27 | 0 | 0.0 | 3.2 | 0.00 | 0.20 | 0.20 | 94 | 1013.7 |
| 20260902230523 | 27 | 0 | 0.0 | 3.2 | 0.00 | 0.20 | 0.20 | 94 | 1013.7 |
| 20260902230051 | 27 | 0 | 0.0 | 3.2 | 0.00 | 0.20 | 0.20 | 94 | 1013.7 |
| 20260902225524 | 27 | 356 | 0.0 | 3.2 | 0.00 | 0.20 | 0.20 | 94 | 1013.5 |
| 20260902225020 | 27 | 1 | 0.0 | 3.2 | 0.00 | 0.20 | 0.20 | 94 | 1013.5 |
| 20260902224542 | 27 | 0 | 0.0 | 3.2 | 0.00 | 0.20 | 0.20 | 94 | 1013.4 |
| 20260902224021 | 27 | 0 | 0.0 | 4.8 | 0.00 | 0.20 | 0.20 | 94 | 1013.3 |
| 20260902223519 | 27 | 0 | 0.0 | 4.8 | 0.00 | 0.20 | 0.20 | 94 | 1013.1 |
| 20260902223042 | 27 | 170 | 0.0 | 1.6 | 0.00 | 0.20 | 0.20 | 93 | 1013.1 |
| 20260902222519 | 27 | 0 | 0.0 | 1.6 | 0.00 | 0.20 | 0.20 | 93 | 1013.2 |
| 20260902222024 | 27 | 0 | 0.0 | 3.2 | 0.00 | 0.20 | 0.20 | 92 | 1013.1 |
| 20260902221536 | 27 | 345 | 0.0 | 6.4 | 0.00 | 0.20 | 0.20 | 92 | 1013.1 |
| 20260902221022 | 27 | 0 | 0.0 | 6.4 | 0.00 | 0.20 | 0.20 | 91 | 1013.3 |
| 20260902220520 | 27 | 0 | 0.0 | 6.4 | 0.00 | 0.20 | 0.20 | 91 | 1013.2 |
| 20260902220042 | 28 | 1 | 0.0 | 6.4 | 0.00 | 0.20 | 0.20 | 91 | 1013.2 |
| 20260902215520 | 28 | 4 | 0.0 | 6.4 | 0.00 | 0.20 | 0.20 | 90 | 1013.4 |
| 20260902215022 | 28 | 0 | 0.0 | 9.7 | 0.00 | 0.20 | 0.20 | 90 | 1013.4 |
| 20260902214545 | 28 | 1 | 0.0 | 9.7 | 0.00 | 0.20 | 0.20 | 89 | 1013.3 |
| 20260902214018 | 28 | 328 | 1.6 | 9.7 | 0.00 | 0.20 | 0.20 | 89 | 1013.2 |
| 20260902213518 | 28 | 0 | 0.0 | 9.7 | 0.00 | 0.20 | 0.20 | 89 | 1013.2 |
| 20260902213039 | 28 | 296 | 1.6 | 8.0 | 0.00 | 0.20 | 0.20 | 88 | 1013.3 |
| 20260902212520 | 28 | 319 | 1.6 | 8.0 | 0.00 | 0.20 | 0.20 | 88 | 1013.3 |
| 20260902212020 | 28 | 18 | 1.6 | 8.0 | 0.00 | 0.20 | 0.20 | 88 | 1013.4 |
| 20260902211543 | 28 | 30 | 1.6 | 8.0 | 0.00 | 0.20 | 0.20 | 88 | 1013.6 |
| 20260902211020 | 29 | 357 | 1.6 | 8.0 | 0.00 | 0.20 | 0.20 | 87 | 1013.7 |
| 20260902210521 | 29 | 12 | 3.2 | 8.0 | 0.00 | 0.20 | 0.20 | 86 | 1013.6 |
| 20260902210040 | 29 | 8 | 3.2 | 8.0 | 0.00 | 0.20 | 0.20 | 86 | 1013.5 |
| 20260902205520 | 30 | 358 | 0.0 | 4.8 | 0.00 | 0.20 | 0.20 | 87 | 1013.4 |
| 20260902205019 | 30 | 333 | 0.0 | 8.0 | 0.00 | 0.20 | 0.20 | 86 | 1013.3 |
| 20260902204542 | 30 | 0 | 1.6 | 8.0 | 0.00 | 0.20 | 0.20 | 86 | 1013.3 |
| 20260902204018 | 30 | 353 | 3.2 | 6.4 | 0.00 | 0.20 | 0.20 | 85 | 1013.3 |
| 20260902203521 | 30 | 4 | 1.6 | 9.7 | 0.00 | 0.20 | 0.20 | 85 | 1013.5 |
| 20260902203041 | 30 | 296 | 1.6 | 9.7 | 0.00 | 0.20 | 0.20 | 86 | 1013.5 |
| 20260902202519 | 30 | 0 | 0.0 | 3.2 | 0.00 | 0.20 | 0.20 | 89 | 1013.5 |
| 20260902202019 | 30 | 317 | 0.0 | 3.2 | 0.00 | 0.20 | 0.20 | 88 | 1013.6 |
| 20260902201550 | 30 | 0 | 0.0 | 3.2 | 0.00 | 0.20 | 0.20 | 88 | 1013.4 |
| 20260902201020 | 30 | 0 | 0.0 | 3.2 | 0.00 | 0.20 | 0.20 | 88 | 1013.6 |
| 20260902200520 | 30 | 0 | 0.0 | 4.8 | 0.00 | 0.20 | 0.20 | 87 | 1013.5 |
| 20260902200044 | 30 | 0 | 0.0 | 4.8 | 0.00 | 0.20 | 0.20 | 87 | 1013.6 |
| 20260902195521 | 30 | 0 | 0.0 | 4.8 | 0.00 | 0.20 | 0.20 | 85 | 1013.6 |
| 20260902195020 | 30 | 0 | 0.0 | 4.8 | 0.00 | 0.20 | 0.20 | 86 | 1013.7 |
| 20260902194550 | 30 | 0 | 0.0 | 3.2 | 0.00 | 0.20 | 0.20 | 87 | 1013.7 |
| 20260902194024 | 30 | 0 | 0.0 | 3.2 | 0.00 | 0.20 | 0.20 | 87 | 1013.9 |
| 20260902193521 | 30 | 0 | 0.0 | 3.2 | 0.00 | 0.20 | 0.20 | 86 | 1013.8 |
| 20260902193044 | 30 | 0 | 0.0 | 4.8 | 0.00 | 0.20 | 0.20 | 88 | 1013.8 |
| 20260902192520 | 30 | 0 | 0.0 | 6.4 | 0.00 | 0.20 | 0.20 | 85 | 1013.8 |
| 20260902192021 | 30 | 0 | 1.6 | 6.4 | 0.03 | 0.20 | 0.20 | 84 | 1013.8 |
| 20260902191542 | 30 | 8 | 0.0 | 3.2 | 0.03 | 0.20 | 0.20 | 85 | 1013.9 |
| 20260902191020 | 30 | 0 | 0.0 | 4.8 | 0.03 | 0.20 | 0.20 | 85 | 1013.7 |
| 20260902190520 | 31 | 295 | 0.0 | 11.3 | 0.03 | 0.20 | 0.20 | 83 | 1013.7 |
| 20260902190043 | 31 | 65 | 1.6 | 11.3 | 0.03 | 0.20 | 0.20 | 82 | 1013.8 |
| 20260902185520 | 31 | 171 | 1.6 | 11.3 | 0.03 | 0.20 | 0.20 | 83 | 1013.8 |
| 20260902185022 | 30 | 274 | 1.6 | 6.4 | 0.03 | 0.20 | 0.20 | 85 | 1013.8 |
| 20260902184542 | 30 | 0 | 0.0 | 3.2 | 0.03 | 0.20 | 0.20 | 90 | 1013.8 |
| 20260902184023 | 30 | 0 | 0.0 | 3.2 | 0.03 | 0.20 | 0.20 | 91 | 1013.9 |
| 20260902183523 | 30 | 0 | 0.0 | 1.6 | 0.03 | 0.20 | 0.20 | 92 | 1014.1 |
| 20260902183041 | 29 | 0 | 0.0 | 12.9 | 0.03 | 0.20 | 0.20 | 90 | 1014.2 |
| 20260902182524 | 30 | 0 | 3.2 | 12.9 | 0.03 | 0.20 | 0.20 | 88 | 1014.4 |
| 20260902182024 | 31 | 20 | 1.6 | 14.5 | 0.00 | 0.18 | 0.18 | 84 | 1014.4 |
| 20260902181542 | 31 | 14 | 6.4 | 14.5 | 0.00 | 0.18 | 0.18 | 81 | 1014.3 |
| 20260902181021 | 31 | 352 | 3.2 | 8.0 | 0.00 | 0.18 | 0.18 | 80 | 1014.3 |
| 20260902180518 | 31 | 319 | 0.0 | 4.8 | 0.00 | 0.18 | 0.18 | 80 | 1014.3 |
| 20260902180042 | 31 | 1 | 1.6 | 4.8 | 0.00 | 0.18 | 0.18 | 79 | 1014.4 |
| 20260902175521 | 32 | 35 | 1.6 | 9.7 | 0.00 | 0.18 | 0.18 | 79 | 1014.4 |
| 20260902175025 | 32 | 39 | 0.0 | 9.7 | 0.00 | 0.18 | 0.18 | 80 | 1014.3 |
| 20260902174541 | 32 | 29 | 1.6 | 9.7 | 0.00 | 0.18 | 0.18 | 79 | 1014.4 |
| 20260902174020 | 32 | 102 | 0.0 | 9.7 | 0.00 | 0.18 | 0.18 | 78 | 1014.4 |
| 20260902173521 | 32 | 296 | 1.6 | 8.0 | 0.00 | 0.18 | 0.18 | 78 | 1014.4 |
| 20260902173046 | 32 | 83 | 3.2 | 9.7 | 0.00 | 0.18 | 0.18 | 80 | 1014.6 |
| 20260902172526 | 31 | 311 | 0.0 | 11.3 | 0.00 | 0.18 | 0.18 | 82 | 1014.6 |
| 20260902172021 | 31 | 25 | 3.2 | 11.3 | 0.00 | 0.18 | 0.18 | 80 | 1014.7 |
| 20260902171540 | 31 | 12 | 0.0 | 4.8 | 0.00 | 0.18 | 0.18 | 83 | 1014.7 |
| 20260902171023 | 31 | 0 | 0.0 | 6.4 | 0.00 | 0.18 | 0.18 | 84 | 1014.8 |
| 20260902170522 | 31 | 29 | 1.6 | 6.4 | 0.00 | 0.18 | 0.18 | 81 | 1015.0 |
| 20260902170041 | 31 | 0 | 0.0 | 4.8 | 0.00 | 0.18 | 0.18 | 82 | 1014.9 |
| 20260902165520 | 31 | 14 | 0.0 | 4.8 | 0.00 | 0.66 | 0.18 | 81 | 1014.9 |
| 20260902165021 | 31 | 0 | 0.0 | 4.8 | 0.00 | 0.66 | 0.18 | 84 | 1014.9 |
| 20260902164541 | 31 | 80 | 0.0 | 6.4 | 0.00 | 0.66 | 0.18 | 82 | 1014.9 |
| 20260902164019 | 31 | 0 | 0.0 | 6.4 | 0.00 | 0.66 | 0.18 | 83 | 1014.9 |
| 20260902163523 | 30 | 292 | 1.6 | 6.4 | 0.00 | 0.66 | 0.18 | 84 | 1015.1 |
| 20260902163044 | 30 | 4 | 0.0 | 6.4 | 0.00 | 0.66 | 0.18 | 88 | 1015.1 |
| 20260902162521 | 30 | 25 | 1.6 | 6.4 | 0.00 | 0.66 | 0.18 | 86 | 1015.1 |
| 20260902162022 | 30 | 78 | 0.0 | 4.8 | 0.03 | 0.66 | 0.18 | 89 | 1015.1 |
| 20260902161543 | 30 | 0 | 0.0 | 4.8 | 0.03 | 0.66 | 0.18 | 92 | 1015.2 |
| 20260902161020 | 29 | 0 | 0.0 | 3.2 | 0.03 | 0.66 | 0.18 | 95 | 1015.3 |
| 20260902160525 | 28 | 0 | 0.0 | 3.2 | 0.03 | 0.66 | 0.18 | 94 | 1015.5 |
| 20260902160038 | 28 | 352 | 0.0 | 4.8 | 0.03 | 0.66 | 0.18 | 95 | 1015.6 |
| 20260902155519 | 28 | 0 | 0.0 | 4.8 | 0.03 | 0.71 | 0.18 | 95 | 1015.7 |
| 20260902155020 | 28 | 349 | 0.0 | 4.8 | 0.03 | 0.71 | 0.18 | 95 | 1015.7 |
| 20260902154539 | 28 | 0 | 0.0 | 4.8 | 0.03 | 0.71 | 0.18 | 95 | 1015.8 |
| 20260902154019 | 28 | 109 | 0.0 | 4.8 | 0.03 | 0.71 | 0.18 | 97 | 1015.7 |
| 20260902153526 | 27 | 0 | 0.0 | 3.2 | 0.03 | 0.71 | 0.18 | 99 | 1015.7 |
| 20260902153044 | 27 | 0 | 0.0 | 4.8 | 0.03 | 0.71 | 0.18 | 97 | 1015.8 |
| 20260902152520 | 27 | 58 | 0.0 | 12.9 | 0.03 | 0.71 | 0.18 | 96 | 1015.9 |
| 20260902152021 | 28 | 0 | 1.6 | 14.5 | 0.00 | 0.69 | 0.15 | 94 | 1016.0 |
| 20260902151547 | 28 | 0 | 3.2 | 14.5 | 0.05 | 0.69 | 0.15 | 94 | 1015.7 |
| 20260902151020 | 28 | 0 | 0.0 | 8.0 | 0.13 | 0.69 | 0.15 | 94 | 1015.6 |
| 20260902150521 | 28 | 97 | 1.6 | 8.0 | 0.13 | 0.69 | 0.15 | 92 | 1015.6 |
| 20260902150040 | 28 | 0 | 0.0 | 8.0 | 0.15 | 0.69 | 0.15 | 96 | 1015.7 |
| 20260902145519 | 28 | 23 | 0.0 | 4.8 | 0.15 | 0.69 | 0.15 | 95 | 1015.7 |
| 20260902145021 | 28 | 0 | 0.0 | 3.2 | 0.15 | 0.69 | 0.15 | 96 | 1015.7 |
| 20260902144538 | 28 | 270 | 0.0 | 4.8 | 0.15 | 0.69 | 0.15 | 97 | 1015.8 |
| 20260902144019 | 28 | 28 | 0.0 | 4.8 | 0.15 | 0.69 | 0.15 | 97 | 1015.7 |
| 20260902143524 | 27 | 0 | 0.0 | 4.8 | 0.15 | 0.69 | 0.15 | 98 | 1015.8 |
| 20260902143041 | 27 | 0 | 0.0 | 3.2 | 0.15 | 0.69 | 0.15 | 99 | 1015.9 |
| 20260902142523 | 27 | 0 | 0.0 | 1.6 | 0.15 | 0.69 | 0.15 | 100 | 1015.8 |
| 20260902142020 | 26 | 0 | 0.0 | 4.8 | 0.15 | 0.69 | 0.15 | 100 | 1015.9 |
| 20260902141544 | 26 | 349 | 0.0 | 6.4 | 0.08 | 0.61 | 0.08 | 99 | 1016.0 |
| 20260902141020 | 26 | 0 | 0.0 | 9.7 | 0.03 | 0.56 | 0.03 | 97 | 1016.0 |
| 20260902140520 | 27 | 317 | 0.0 | 11.3 | 0.03 | 0.56 | 0.03 | 95 | 1015.9 |
| 20260902140037 | 27 | 319 | 1.6 | 11.3 | 0.00 | 0.53 | 0.00 | 94 | 1015.9 |
| 20260902135521 | 28 | 17 | 0.0 | 6.4 | 0.00 | 0.53 | 0.00 | 94 | 1015.7 |
| 20260902135019 | 28 | 13 | 0.0 | 8.0 | 0.00 | 0.53 | 0.00 | 93 | 1015.5 |
| 20260902134543 | 28 | 106 | 1.6 | 8.0 | 0.00 | 0.53 | 0.00 | 93 | 1015.4 |
| 20260902134022 | 28 | 0 | 0.0 | 4.8 | 0.00 | 0.53 | 0.00 | 93 | 1015.4 |
| 20260902133521 | 28 | 63 | 1.6 | 4.8 | 0.00 | 0.53 | 0.00 | 92 | 1015.6 |
| 20260902133039 | 28 | 0 | 0.0 | 6.4 | 0.00 | 0.53 | 0.00 | 93 | 1015.6 |
| 20260902132524 | 28 | 357 | 1.6 | 6.4 | 0.00 | 0.53 | 0.00 | 93 | 1015.7 |
| 20260902132020 | 28 | 0 | 0.0 | 4.8 | 0.00 | 0.53 | 0.00 | 95 | 1015.8 |
| 20260902131543 | 27 | 0 | 0.0 | 3.2 | 0.00 | 0.53 | 0.00 | 96 | 1015.8 |
| 20260902131020 | 27 | 317 | 0.0 | 4.8 | 0.00 | 0.53 | 0.00 | 97 | 1015.8 |
| 20260902130525 | 26 | 335 | 0.0 | 6.4 | 0.00 | 0.53 | 0.00 | 99 | 1015.8 |
| 20260902130041 | 26 | 328 | 1.6 | 6.4 | 0.00 | 0.53 | 0.00 | 100 | 1015.8 |
| 20260902125520 | 26 | 280 | 1.6 | 8.0 | 0.00 | 0.53 | 0.00 | 100 | 1015.7 |
| 20260902125022 | 26 | 342 | 1.6 | 8.0 | 0.00 | 0.53 | 0.00 | 100 | 1015.7 |
| 20260902124540 | 26 | 0 | 0.0 | 0.0 | 0.00 | 0.53 | 0.00 | 100 | 1015.7 |
| 20260902124024 | 25 | 0 | 0.0 | 0.0 | 0.00 | 0.53 | 0.00 | 100 | 1015.6 |
| 20260902123521 | 25 | 0 | 0.0 | 0.0 | 0.00 | 0.53 | 0.00 | 100 | 1015.5 |
| 20260902123041 | 25 | 0 | 0.0 | 0.0 | 0.00 | 0.53 | 0.00 | 100 | 1015.5 |
| 20260902122524 | 25 | 0 | 0.0 | 0.0 | 0.00 | 0.53 | 0.00 | 100 | 1015.5 |
| 20260902122019 | 25 | 0 | 0.0 | 0.0 | 0.00 | 0.53 | 0.00 | 100 | 1015.5 |
| 20260902121547 | 25 | 0 | 0.0 | 0.0 | 0.00 | 0.53 | 0.00 | 100 | 1015.5 |
| 20260902121020 | 25 | 0 | 0.0 | 0.0 | 0.00 | 0.53 | 0.00 | 100 | 1015.5 |
| 20260902120519 | 25 | 0 | 0.0 | 0.0 | 0.00 | 0.53 | 0.00 | 100 | 1015.5 |
| 20260902120043 | 25 | 0 | 0.0 | 1.6 | 0.00 | 0.53 | 0.00 | 100 | 1015.5 |
| 20260902115550 | 24 | 0 | 0.0 | 1.6 | 0.00 | 0.53 | 0.00 | 100 | 1015.4 |
| 20260902115018 | 24 | 0 | 0.0 | 0.0 | 0.00 | 0.53 | 0.00 | 100 | 1015.3 |
| 20260902114542 | 24 | 0 | 0.0 | 0.0 | 0.00 | 0.53 | 0.00 | 100 | 1015.4 |
| 20260902114017 | 24 | 0 | 0.0 | 0.0 | 0.00 | 0.53 | 0.00 | 100 | 1015.2 |
| 20260902113520 | 24 | 0 | 0.0 | 0.0 | 0.00 | 0.53 | 0.00 | 100 | 1015.2 |
| 20260902113036 | 23 | 0 | 0.0 | 0.0 | 0.00 | 0.53 | 0.00 | 100 | 1015.2 |
| 20260902112521 | 23 | 0 | 0.0 | 0.0 | 0.00 | 0.53 | 0.00 | 100 | 1015.2 |
| 20260902112021 | 23 | 0 | 0.0 | 0.0 | 0.00 | 0.53 | 0.00 | 100 | 1015.1 |
| 20260902111537 | 23 | 0 | 0.0 | 0.0 | 0.00 | 0.53 | 0.00 | 100 | 1015.1 |
| 20260902111019 | 23 | 0 | 0.0 | 0.0 | 0.00 | 0.53 | 0.00 | 100 | 1015.2 |
| 20260902110520 | 23 | 0 | 0.0 | 0.0 | 0.00 | 0.53 | 0.00 | 100 | 1015.1 |
| 20260902110041 | 23 | 0 | 0.0 | 0.0 | 0.00 | 0.53 | 0.00 | 100 | 1015.1 |
| 20260902105519 | 23 | 0 | 0.0 | 0.0 | 0.00 | 0.53 | 0.00 | 100 | 1015.2 |
| 20260902105019 | 23 | 0 | 0.0 | 0.0 | 0.00 | 0.53 | 0.00 | 100 | 1015.0 |
| 20260902104600 | 23 | 0 | 0.0 | 0.0 | 0.00 | 0.53 | 0.00 | 100 | 1015.0 |
| 20260902104019 | 23 | 0 | 0.0 | 0.0 | 0.00 | 0.53 | 0.00 | 100 | 1014.9 |
| 20260902103523 | 23 | 0 | 0.0 | 0.0 | 0.00 | 0.53 | 0.00 | 100 | 1014.9 |
| 20260902103038 | 23 | 0 | 0.0 | 0.0 | 0.00 | 0.53 | 0.00 | 100 | 1014.8 |
| 20260902102521 | 23 | 0 | 0.0 | 0.0 | 0.00 | 0.53 | 0.00 | 100 | 1014.8 |
| 20260902102020 | 23 | 0 | 0.0 | 0.0 | 0.00 | 0.53 | 0.00 | 100 | 1014.8 |
| 20260902101534 | 23 | 0 | 0.0 | 0.0 | 0.00 | 0.53 | 0.00 | 100 | 1014.8 |
| 20260902101019 | 23 | 0 | 0.0 | 0.0 | 0.00 | 0.53 | 0.00 | 100 | 1014.8 |
| 20260902100520 | 23 | 0 | 0.0 | 0.0 | 0.00 | 0.53 | 0.00 | 100 | 1014.7 |
| 20260902100047 | 23 | 0 | 0.0 | 0.0 | 0.00 | 0.53 | 0.00 | 100 | 1014.6 |
| 20260902095520 | 23 | 0 | 0.0 | 0.0 | 0.00 | 0.53 | 0.00 | 100 | 1014.5 |
| 20260902095019 | 23 | 0 | 0.0 | 0.0 | 0.00 | 0.53 | 0.00 | 100 | 1014.5 |
| 20260902094535 | 23 | 0 | 0.0 | 0.0 | 0.00 | 0.53 | 0.00 | 100 | 1014.4 |
| 20260902094021 | 23 | 0 | 0.0 | 0.0 | 0.00 | 0.53 | 0.00 | 100 | 1014.4 |
| 20260902093523 | 23 | 0 | 0.0 | 0.0 | 0.00 | 0.53 | 0.00 | 100 | 1014.3 |
| 20260902093037 | 23 | 0 | 0.0 | 0.0 | 0.00 | 0.53 | 0.00 | 100 | 1014.3 |
| 20260902092519 | 23 | 0 | 0.0 | 0.0 | 0.00 | 0.53 | 0.00 | 100 | 1014.3 |
| 20260902092026 | 23 | 0 | 0.0 | 0.0 | 0.00 | 0.53 | 0.00 | 100 | 1014.1 |
| 20260902091539 | 23 | 0 | 0.0 | 0.0 | 0.00 | 0.53 | 0.00 | 100 | 1014.1 |
| 20260902091019 | 23 | 0 | 0.0 | 0.0 | 0.00 | 0.53 | 0.00 | 100 | 1014.0 |
| 20260902090518 | 23 | 0 | 0.0 | 0.0 | 0.00 | 0.53 | 0.00 | 100 | 1014.0 |
| 20260902090036 | 24 | 0 | 0.0 | 0.0 | 0.00 | 0.53 | 0.00 | 100 | 1013.9 |
| 20260902085519 | 23 | 0 | 0.0 | 0.0 | 0.00 | 0.53 | 0.00 | 100 | 1013.9 |
| 20260902085021 | 23 | 0 | 0.0 | 1.6 | 0.00 | 0.53 | 0.00 | 100 | 1013.9 |
| 20260902084541 | 23 | 0 | 0.0 | 1.6 | 0.00 | 0.53 | 0.00 | 100 | 1014.0 |
| 20260902084022 | 23 | 0 | 0.0 | 1.6 | 0.00 | 0.53 | 0.00 | 100 | 1014.1 |
| 20260902083521 | 23 | 0 | 0.0 | 0.0 | 0.00 | 0.53 | 0.00 | 100 | 1014.1 |
| 20260902083036 | 23 | 0 | 0.0 | 0.0 | 0.00 | 0.53 | 0.00 | 100 | 1014.1 |
| 20260902082519 | 23 | 0 | 0.0 | 0.0 | 0.00 | 0.53 | 0.00 | 100 | 1014.1 |
| 20260902082023 | 23 | 0 | 0.0 | 0.0 | 0.00 | 0.53 | 0.00 | 100 | 1014.2 |
| 20260902081605 | 23 | 0 | 0.0 | 0.0 | 0.00 | 0.53 | 0.00 | 100 | 1014.1 |
| 20260902081023 | 23 | 0 | 0.0 | 0.0 | 0.00 | 0.53 | 0.00 | 100 | 1014.1 |
| 20260902080521 | 23 | 0 | 0.0 | 0.0 | 0.00 | 0.53 | 0.00 | 100 | 1014.3 |
| 20260902080053 | 23 | 0 | 0.0 | 0.0 | 0.00 | 0.53 | 0.00 | 100 | 1014.2 |
| 20260902075520 | 23 | 0 | 0.0 | 0.0 | 0.00 | 0.53 | 0.00 | 100 | 1014.3 |
| 20260902075019 | 23 | 0 | 0.0 | 0.0 | 0.00 | 0.53 | 0.00 | 100 | 1014.3 |
| 20260902074544 | 23 | 0 | 0.0 | 0.0 | 0.00 | 0.53 | 0.00 | 100 | 1014.3 |
| 20260902074021 | 23 | 0 | 0.0 | 0.0 | 0.00 | 0.53 | 0.00 | 100 | 1014.4 |
| 20260902073520 | 23 | 0 | 0.0 | 0.0 | 0.00 | 0.53 | 0.00 | 100 | 1014.4 |
| 20260902073039 | 23 | 0 | 0.0 | 0.0 | 0.00 | 0.53 | 0.00 | 100 | 1014.4 |
| 20260902072526 | 23 | 0 | 0.0 | 0.0 | 0.00 | 0.53 | 0.00 | 100 | 1014.3 |
| 20260902072023 | 23 | 0 | 0.0 | 0.0 | 0.00 | 0.53 | 0.00 | 100 | 1014.3 |
| 20260902071540 | 23 | 0 | 0.0 | 0.0 | 0.00 | 0.53 | 0.00 | 100 | 1014.2 |
| 20260902071021 | 23 | 0 | 0.0 | 0.0 | 0.00 | 0.53 | 0.00 | 100 | 1014.4 |
| 20260902070524 | 23 | 0 | 0.0 | 0.0 | 0.00 | 0.53 | 0.00 | 100 | 1014.5 |
| 20260902070043 | 23 | 0 | 0.0 | 0.0 | 0.00 | 0.53 | 0.00 | 100 | 1014.5 |
| 20260902065523 | 23 | 0 | 0.0 | 0.0 | 0.00 | 0.53 | 0.00 | 100 | 1014.5 |
| 20260902065021 | 23 | 0 | 0.0 | 0.0 | 0.00 | 0.53 | 0.00 | 100 | 1014.5 |
| 20260902064540 | 23 | 0 | 0.0 | 0.0 | 0.00 | 0.53 | 0.00 | 100 | 1014.5 |
| 20260902064023 | 23 | 0 | 0.0 | 0.0 | 0.00 | 0.53 | 0.00 | 100 | 1014.5 |
| 20260902063519 | 23 | 0 | 0.0 | 0.0 | 0.00 | 0.53 | 0.00 | 100 | 1014.6 |
| 20260902063056 | 23 | 0 | 0.0 | 0.0 | 0.00 | 0.53 | 0.00 | 100 | 1014.7 |
| 20260902062524 | 23 | 0 | 0.0 | 0.0 | 0.00 | 0.53 | 0.00 | 100 | 1014.7 |
| 20260902062021 | 23 | 0 | 0.0 | 0.0 | 0.00 | 0.53 | 0.00 | 100 | 1014.7 |
| 20260902061545 | 23 | 0 | 0.0 | 0.0 | 0.00 | 0.53 | 0.00 | 100 | 1014.7 |
| 20260902061035 | 23 | 0 | 0.0 | 0.0 | 0.00 | 0.53 | 0.00 | 100 | 1014.5 |
| 20260902060520 | 23 | 0 | 0.0 | 0.0 | 0.00 | 0.53 | 0.00 | 100 | 1014.6 |
| 20260902060054 | 23 | 0 | 0.0 | 0.0 | 0.00 | 0.53 | 0.00 | 100 | 1014.6 |
| 20260902055521 | 23 | 0 | 0.0 | 0.0 | 0.00 | 0.53 | 0.00 | 100 | 1014.6 |
| 20260902055020 | 23 | 0 | 0.0 | 0.0 | 0.00 | 0.53 | 0.00 | 100 | 1014.5 |
| 20260902054543 | 23 | 0 | 0.0 | 0.0 | 0.00 | 0.53 | 0.00 | 100 | 1014.6 |
| 20260902054020 | 23 | 0 | 0.0 | 0.0 | 0.00 | 0.53 | 0.00 | 100 | 1014.7 |
| 20260902053519 | 23 | 0 | 0.0 | 0.0 | 0.00 | 0.53 | 0.00 | 100 | 1014.6 |
| 20260902053042 | 23 | 0 | 0.0 | 0.0 | 0.00 | 0.53 | 0.00 | 100 | 1014.7 |
| 20260902052519 | 23 | 0 | 0.0 | 0.0 | 0.00 | 0.53 | 0.00 | 100 | 1014.7 |
| 20260902052018 | 23 | 0 | 0.0 | 0.0 | 0.00 | 0.53 | 0.00 | 100 | 1014.8 |
| 20260902051537 | 23 | 0 | 0.0 | 0.0 | 0.00 | 0.53 | 0.00 | 100 | 1014.7 |
| 20260902051020 | 23 | 0 | 0.0 | 0.0 | 0.00 | 0.53 | 0.00 | 100 | 1014.7 |
| 20260902050521 | 23 | 0 | 0.0 | 0.0 | 0.00 | 0.53 | 0.00 | 100 | 1014.7 |
| 20260902050036 | 23 | 0 | 0.0 | 0.0 | 0.00 | 0.53 | 0.00 | 100 | 1014.6 |
| 20260902045518 | 23 | 0 | 0.0 | 0.0 | 0.00 | 0.53 | 0.00 | 100 | 1014.7 |
| 20260902045019 | 23 | 0 | 0.0 | 0.0 | 0.00 | 0.53 | 0.00 | 100 | 1014.8 |
| 20260902044545 | 23 | 0 | 0.0 | 0.0 | 0.00 | 0.53 | 0.00 | 100 | 1014.8 |
| 20260902044022 | 23 | 0 | 0.0 | 0.0 | 0.00 | 0.53 | 0.00 | 100 | 1014.8 |
| 20260902043520 | 23 | 0 | 0.0 | 0.0 | 0.00 | 0.53 | 0.00 | 100 | 1014.9 |
| 20260902043041 | 23 | 0 | 0.0 | 0.0 | 0.00 | 0.53 | 0.00 | 100 | 1014.9 |
| 20260902042519 | 23 | 0 | 0.0 | 0.0 | 0.00 | 0.53 | 0.00 | 100 | 1014.9 |
| 20260902042017 | 23 | 0 | 0.0 | 0.0 | 0.00 | 0.53 | 0.00 | 100 | 1015.0 |
| 20260902041539 | 23 | 0 | 0.0 | 0.0 | 0.00 | 0.53 | 0.00 | 100 | 1015.0 |
| 20260902041020 | 23 | 0 | 0.0 | 0.0 | 0.00 | 0.53 | 0.00 | 100 | 1015.0 |
| 20260902040521 | 23 | 0 | 0.0 | 0.0 | 0.00 | 0.53 | 0.00 | 100 | 1015.1 |
| 20260902040037 | 23 | 0 | 0.0 | 0.0 | 0.00 | 0.53 | 0.00 | 100 | 1015.1 |
| 20260902035518 | 23 | 0 | 0.0 | 0.0 | 0.00 | 0.53 | 0.53 | 100 | 1015.2 |
| 20260902035019 | 23 | 0 | 0.0 | 0.0 | 0.00 | 0.53 | 0.53 | 100 | 1015.2 |
| 20260902034537 | 23 | 0 | 0.0 | 0.0 | 0.00 | 0.53 | 0.53 | 100 | 1015.2 |
| 20260902034019 | 23 | 0 | 0.0 | 0.0 | 0.00 | 0.53 | 0.53 | 100 | 1015.3 |
| 20260902033520 | 23 | 0 | 0.0 | 0.0 | 0.00 | 0.53 | 0.53 | 100 | 1015.4 |
| 20260902033037 | 23 | 0 | 0.0 | 0.0 | 0.00 | 0.53 | 0.53 | 100 | 1015.4 |
| 20260902032521 | 24 | 0 | 0.0 | 0.0 | 0.00 | 0.53 | 0.53 | 100 | 1015.5 |
| 20260902032024 | 24 | 0 | 0.0 | 0.0 | 0.00 | 0.53 | 0.53 | 100 | 1015.5 |
| 20260902031542 | 24 | 0 | 0.0 | 0.0 | 0.00 | 0.53 | 0.53 | 100 | 1015.5 |
| 20260902031020 | 24 | 0 | 0.0 | 0.0 | 0.00 | 0.53 | 0.53 | 100 | 1015.5 |
| 20260902030521 | 24 | 0 | 0.0 | 0.0 | 0.00 | 0.53 | 0.53 | 100 | 1015.4 |
| 20260902030038 | 24 | 0 | 0.0 | 0.0 | 0.00 | 0.53 | 0.53 | 100 | 1015.5 |
| 20260902025521 | 24 | 0 | 0.0 | 0.0 | 0.00 | 0.53 | 0.53 | 100 | 1015.6 |
| 20260902025020 | 24 | 0 | 0.0 | 0.0 | 0.00 | 0.53 | 0.53 | 100 | 1015.6 |
| 20260902024537 | 24 | 0 | 0.0 | 0.0 | 0.00 | 0.53 | 0.53 | 100 | 1015.6 |
| 20260902024019 | 24 | 0 | 0.0 | 0.0 | 0.00 | 0.53 | 0.53 | 100 | 1015.8 |
| 20260902023519 | 24 | 0 | 0.0 | 0.0 | 0.00 | 0.53 | 0.53 | 100 | 1015.7 |
| 20260902023040 | 24 | 0 | 0.0 | 0.0 | 0.00 | 0.53 | 0.53 | 100 | 1015.8 |
| 20260902022520 | 24 | 0 | 0.0 | 0.0 | 0.00 | 0.53 | 0.53 | 100 | 1015.8 |
| 20260902022019 | 24 | 0 | 0.0 | 0.0 | 0.00 | 0.53 | 0.53 | 100 | 1015.8 |
| 20260902021543 | 24 | 0 | 0.0 | 0.0 | 0.00 | 0.53 | 0.53 | 100 | 1015.7 |
| 20260902021025 | 24 | 0 | 0.0 | 0.0 | 0.00 | 0.53 | 0.53 | 100 | 1015.8 |
| 20260902020525 | 24 | 0 | 0.0 | 0.0 | 0.00 | 0.53 | 0.53 | 100 | 1015.8 |
| 20260902020043 | 25 | 0 | 0.0 | 0.0 | 0.00 | 0.53 | 0.53 | 99 | 1015.7 |
| 20260902015518 | 25 | 0 | 0.0 | 0.0 | 0.00 | 0.53 | 0.53 | 99 | 1015.7 |
| 20260902015020 | 25 | 0 | 0.0 | 0.0 | 0.00 | 0.53 | 0.53 | 99 | 1015.7 |
| 20260902014548 | 25 | 0 | 0.0 | 0.0 | 0.00 | 0.53 | 0.53 | 98 | 1015.8 |
| 20260902014019 | 25 | 0 | 0.0 | 0.0 | 0.00 | 0.53 | 0.53 | 99 | 1015.7 |
| 20260902013519 | 25 | 0 | 0.0 | 0.0 | 0.00 | 0.53 | 0.53 | 99 | 1015.6 |
| 20260902013037 | 25 | 0 | 0.0 | 0.0 | 0.00 | 0.53 | 0.53 | 98 | 1015.6 |
| 20260902012518 | 25 | 0 | 0.0 | 0.0 | 0.00 | 0.53 | 0.53 | 98 | 1015.5 |
| 20260902012021 | 25 | 0 | 0.0 | 0.0 | 0.00 | 0.53 | 0.53 | 98 | 1015.4 |
| 20260902011537 | 25 | 0 | 0.0 | 0.0 | 0.00 | 0.53 | 0.53 | 98 | 1015.3 |
| 20260902011024 | 25 | 0 | 0.0 | 0.0 | 0.00 | 0.53 | 0.53 | 98 | 1015.3 |
| 20260902010521 | 25 | 0 | 0.0 | 0.0 | 0.00 | 0.53 | 0.53 | 97 | 1015.2 |
| 20260902010034 | 25 | 0 | 0.0 | 0.0 | 0.00 | 0.53 | 0.53 | 97 | 1015.2 |
| 20260902005519 | 25 | 0 | 0.0 | 0.0 | 0.00 | 0.53 | 0.53 | 97 | 1015.2 |
| 20260902005020 | 25 | 0 | 0.0 | 0.0 | 0.00 | 0.53 | 0.53 | 96 | 1015.1 |
| 20260902004542 | 26 | 0 | 0.0 | 0.0 | 0.00 | 0.53 | 0.53 | 96 | 1015.1 |
| 20260902004022 | 26 | 0 | 0.0 | 0.0 | 0.00 | 0.53 | 0.53 | 96 | 1015.2 |
| 20260902003522 | 26 | 0 | 0.0 | 0.0 | 0.00 | 0.53 | 0.53 | 96 | 1015.2 |
| 20260902003040 | 26 | 0 | 0.0 | 0.0 | 0.00 | 0.53 | 0.53 | 95 | 1015.3 |
| 20260902002520 | 26 | 0 | 0.0 | 0.0 | 0.00 | 0.53 | 0.53 | 95 | 1015.4 |
| 20260902002019 | 26 | 0 | 0.0 | 0.0 | 0.00 | 0.53 | 0.53 | 94 | 1015.2 |
| 20260902001539 | 26 | 0 | 0.0 | 0.0 | 0.00 | 0.53 | 0.53 | 94 | 1015.2 |